Wind_Speed
8 7 7 7 6 6 6 6 6 6 5 5 5 5 6 7 7 8 8 7 7 6 5 6 6 7 8 9 10 11 12 11 8 7 5 2 2 4 4 6 7 7 7 8 7 7 6 7 8 8 8 6 6 5 6 6 5 4 5 6 7 7 6 3 3 2 3 3 2 5 3 4 2 5 2 2 3 5 9 9 11 14 15 14 11 8 8 9
8 8 7 7 7 7 7 7 6 6 6 6 6 6 6 7 7 8 8 8 7 6 5 5 6 7 8 9 10 11 12 10 7 5 2 1 2 3 5 6 6 6 6 7 7 7 6 5 7 8 7 5 5 4 5 6 6 6 6 6 7 7 2 3 3 3 3 5 3 3 4 4 5 4 2 2 5 8 8 7 7 11 13 13 11 8 7 7
8 8 8 7 7 7 7 7 7 7 7 7 7 7 7 7 7 7 8 8 7 6 5 5 6 7 9 10 10 11 11 9 6 3 3 1 3 4 5 5 6 6 6 7 8 8 8 7 5 7 7 5 5 6 6 6 6 7 6 6 7 6 3 2 3 4 3 5 6 1 6 8 8 7 4 2 5 10 10 9 6 5 11 12 8 7 6 6
9 9 9 8 7 7 7 7 7 7 8 8 8 8 8 8 8 8 8 8 7 7 6 5 6 8 10 11 11 11 9 7 3 5 2 3 5 5 5 5 6 6 6 6 7 7 7 8 6 8 7 6 6 6 6 6 5 6 6 8 6 3 4 1 2 3 2 3 6 1 6 8 9 10 9 5 3 7 9 10 9 10 12 10 5 6 5 6
10 9 9 9 9 9 9 9 9 9 9 9 9 9 9 9 9 9 9 8 8 7 7 7 8 10 11 12 12 10 6 4 2 5 2 4 6 6 6 6 6 6 5 5 7 6 6 8 7 7 6 6 6 6 8 8 5 5 7 11 8 3 5 1 5 3 2 1 4 3 4 6 8 11 14 11 5 5 8 9 9 8 8 7 4 6 7 8
10 10 10 10 10 10 10 10 10 10 10 10 10 10 9 10 10 10 10 9 9 8 9 9 10 11 11 12 12 7 5 2 3 3 4 5 6 7 7 6 6 5 4 5 6 5 6 7 7 7 6 7 8 7 9 8 6 7 8 10 7 5 6 1 5 3 2 3 4 2 5 8 10 10 13 15 11 7 7 7 8 8 7 7 7 8 8 9
11 11 11 11 11 11 11 12 12 12 12 12 12 11 10 9 9 9 10 10 9 9 10 10 10 10 10 10 9 6 6 2 5 3 5 6 9 9 8 7 5 5 4 6 6 5 5 7 8 7 7 7 8 8 6 5 6 8 8 7 4 4 5 2 5 3 1 0 3 7 8 8 9 10 11 14 12 8 9 9 11 13 14 14 13 12 12 12
11 12 12 11 12 12 12 13 13 13 13 13 14 12 10 9 8 8 9 9 9 10 10 10 10 9 8 7 6 5 4 4 5 4 6 8 11 10 10 8 4 3 4 5 5 5 5 7 9 6 7 6 5 5 2 4 8 10 11 8 2 3 2 4 5 4 4 5 8 11 12 12 12 12 13 13 10 10 11 11 13 16 18 18 17 17 16 16
12 12 12 12 13 13 13 13 13 14 14 14 14 13 11 9 9 8 9 8 9 9 9 10 8 6 6 5 6 5 1 4 3 3 6 9 12 11 9 5 4 4 5 4 4 5 4 5 6 4 7 6 4 4 2 5 6 6 10 8 3 4 3 4 4 5 6 6 8 12 12 11 10 9 12 12 9 10 11 13 14 15 17 17 16 17 18 19
12 12 13 13 13 13 13 14 14 15 14 15 15 14 13 10 10 9 9 8 8 8 9 9 7 4 4 5 7 3 4 4 3 4 6 11 12 9 5 3 4 5 5 3 3 5 4 4 4 4 6 5 4 3 3 5 2 2 5 4 3 3 3 3 3 6 6 5 8 12 11 8 6 4 7 9 9 10 12 14 14 15 17 16 15 16 18 20
13 13 14 13 14 14 14 15 15 16 15 16 15 15 13 11 11 10 9 8 7 8 8 7 5 3 4 6 6 2 5 3 4 6 10 13 11 5 2 2 2 4 5 4 2 2 4 5 4 3 2 2 3 3 3 2 3 3 2 4 5 4 3 4 4 7 7 5 8 13 13 10 9 7 8 8 8 10 12 15 15 15 15 15 16 15 17 20
14 14 14 14 15 15 15 16 16 16 16 17 16 15 13 11 11 10 8 7 6 6 5 4 4 3 5 5 2 3 3 3 5 8 12 13 11 6 2 3 4 4 5 5 2 1 3 4 4 5 2 3 3 2 1 1 3 3 4 6 7 7 6 4 5 7 6 6 9 10 8 7 10 9 8 7 8 11 12 14 14 15 14 14 15 14 16 19
14 14 14 15 15 15 16 16 16 16 17 17 16 15 13 11 11 9 7 5 3 3 2 2 4 3 5 2 3 3 3 4 6 10 12 11 10 7 4 6 8 5 4 5 3 2 2 3 5 5 2 5 4 1 0 2 3 4 5 6 5 7 6 4 4 6 7 5 7 6 4 4 9 8 7 5 7 10 12 13 13 13 13 13 13 13 15 19
14 15 15 15 15 15 15 15 15 16 16 16 15 13 12 11 9 6 4 2 1 1 2 3 4 3 3 2 3 2 4 6 7 10 12 13 11 6 4 6 8 4 2 3 2 1 1 2 4 3 1 3 2 1 3 5 4 4 4 4 5 7 2 6 4 6 7 6 7 5 5 3 8 8 6 5 7 10 12 12 13 12 12 12 13 13 14 18
15 15 15 15 14 14 14 15 15 16 16 15 13 13 11 8 5 3 3 3 3 4 4 3 3 3 2 4 2 0 5 7 8 10 11 15 12 6 5 6 6 3 1 1 1 1 1 3 4 3 1 0 2 3 6 5 5 5 4 5 6 6 2 7 4 3 3 6 10 6 3 4 8 8 7 7 8 11 12 12 13 13 13 12 12 13 13 15
15 16 15 15 14 14 14 14 15 16 16 14 13 13 9 6 5 4 4 4 4 5 3 2 2 4 2 3 1 1 5 7 8 9 10 14 11 6 8 7 3 2 1 1 2 2 2 3 2 2 1 2 4 5 5 5 6 6 6 6 5 5 3 5 5 3 2 6 9 7 2 5 7 7 7 7 8 11 12 13 13 13 13 12 11 11 11 13
17 17 16 15 14 13 14 14 15 16 14 13 13 10 6 5 6 6 5 4 4 4 2 1 1 3 1 3 1 1 7 7 8 8 7 11 10 6 8 5 2 1 3 3 3 4 3 3 1 1 3 4 4 3 5 6 5 4 4 5 6 5 6 2 5 4 1 4 5 3 5 8 9 8 8 8 8 10 11 12 13 12 11 11 11 11 11 12
18 18 17 15 14 13 13 14 14 13 12 13 11 7 5 6 9 8 5 3 2 3 3 3 1 2 2 4 2 6 10 7 6 10 8 11 9 5 5 4 2 2 4 4 4 4 3 2 2 3 4 4 3 3 6 5 5 5 4 5 6 5 8 5 4 4 1 4 6 8 10 10 10 9 8 8 8 10 11 11 11 12 12 11 11 11 11 12
18 19 18 16 14 13 13 13 12 10 10 12 9 4 4 7 9 7 7 6 2 1 1 3 3 1 2 5 6 10 10 4 4 10 12 12 9 5 5 4 3 4 5 2 3 3 2 2 4 4 2 2 3 4 6 8 9 10 9 8 8 7 6 0 6 4 4 7 6 7 9 10 10 9 8 8 8 10 11 10 10 10 10 10 10 10 11 11
18 19 18 16 15 13 14 13 10 8 10 10 6 1 3 2 1 3 7 9 5 2 3 4 5 2 2 4 9 12 7 2 2 12 17 16 9 6 4 4 5 5 3 3 1 1 2 4 2 3 5 7 8 8 8 9 9 9 9 8 9 9 4 5 8 4 3 4 5 8 10 10 9 8 8 8 8 9 10 10 9 9 9 9 10 11 11 11
18 18 18 16 15 14 14 11 8 8 8 7 3 2 0 2 2 1 4 5 4 3 3 4 3 3 3 3 9 12 4 3 2 12 21 18 7 4 2 2 4 2 1 3 2 0 2 3 4 7 8 8 8 7 7 8 7 7 8 7 9 8 1 6 6 3 0 1 5 9 10 9 8 8 8 8 8 8 8 9 9 10 10 9 10 11 10 9
18 18 17 16 14 14 14 9 7 8 6 5 3 2 3 3 1 1 0 3 5 3 1 2 1 3 3 0 7 11 4 0 4 12 23 20 7 3 5 5 3 2 3 2 3 2 2 2 7 8 7 6 5 4 5 6 7 7 6 6 7 3 4 5 5 3 1 2 6 9 8 8 8 8 7 7 7 7 7 9 9 9 9 9 9 9 9 9
18 18 16 16 14 14 11 6 7 8 7 6 5 5 4 3 3 1 2 1 5 1 2 3 4 7 5 2 8 11 4 5 6 12 20 19 9 5 6 6 4 2 3 5 5 4 2 5 8 7 5 6 5 3 5 6 6 6 5 6 5 1 2 1 2 4 1 1 7 9 7 6 7 7 7 7 8 8 9 9 9 9 9 9 9 8 8 9
18 17 16 15 13 13 9 4 7 8 9 10 8 6 4 4 3 1 2 1 3 2 2 2 3 8 7 3 8 9 5 7 6 10 16 15 9 5 4 5 4 2 4 6 5 2 5 6 6 6 4 6 7 5 5 5 6 5 2 5 6 4 4 2 5 6 3 3 9 10 4 5 8 8 7 7 8 9 9 9 10 9 9 9 9 9 9 9
18 17 16 15 12 12 6 2 6 6 7 8 6 4 3 3 1 1 1 2 2 2 2 1 1 5 6 3 7 6 2 5 7 9 11 12 10 5 2 2 3 5 6 7 5 1 6 5 4 6 5 7 6 4 7 7 7 4 4 6 8 8 6 4 8 6 3 3 10 10 4 3 9 10 9 8 8 9 8 8 9 9 8 8 8 8 8 9
18 17 16 13 11 10 3 1 5 4 3 4 3 1 2 1 0 1 2 3 2 2 1 1 1 5 7 6 9 4 2 3 5 6 8 8 7 3 2 2 0 5 6 5 3 1 4 4 4 7 7 7 4 4 9 9 7 4 4 7 7 7 5 4 7 6 4 2 9 12 7 1 6 9 10 10 8 9 8 8 8 7 7 7 7 7 7 7
18 16 13 11 10 9 3 1 6 4 1 2 2 1 1 0 0 1 3 4 3 2 4 4 3 6 8 8 11 2 1 5 3 7 11 9 6 3 2 6 2 4 4 2 1 2 6 7 7 9 7 7 7 5 8 9 7 3 4 7 7 5 4 5 6 7 5 2 7 12 9 5 3 6 10 11 9 9 8 7 7 7 7 7 7 7 7 8
16 13 11 10 9 10 5 2 5 3 2 2 1 1 1 1 0 1 3 2 3 2 2 4 3 5 6 7 11 6 2 8 4 9 13 8 6 3 3 9 5 5 5 4 4 4 6 9 9 11 9 7 7 7 8 7 5 3 4 6 6 5 6 6 6 7 6 4 4 8 9 6 2 6 8 8 9 8 8 7 7 7 7 7 7 7 7 8
13 10 10 10 8 9 6 3 4 2 2 2 1 1 1 1 2 3 3 1 2 1 1 3 2 5 8 5 8 9 5 6 4 7 10 7 8 3 3 7 6 6 4 4 6 5 5 6 6 8 8 7 8 7 6 5 4 3 6 7 7 7 7 7 7 7 6 6 8 6 9 6 1 6 6 6 7 7 7 7 6 6 6 6 6 6 6 6
10 8 10 11 8 8 6 3 5 3 3 2 1 1 2 2 3 3 0 1 2 2 1 4 3 6 10 5 7 10 8 7 5 6 6 8 11 8 3 1 5 5 1 6 7 4 4 1 1 5 6 5 8 6 2 4 6 5 7 8 7 7 6 5 5 4 5 5 5 6 3 6 2 4 3 1 2 3 7 7 6 6 5 5 5 5 5 5
7 8 11 13 11 9 5 1 5 5 3 2 1 1 3 3 2 1 2 1 1 4 2 4 5 5 8 7 7 9 8 7 8 8 7 7 10 13 7 2 5 4 0 4 5 7 6 2 2 2 2 6 8 5 3 5 7 5 6 6 7 5 4 4 4 3 5 3 4 7 3 6 4 3 5 5 5 2 6 6 6 7 5 5 5 5 5 4
5 8 13 16 15 13 7 3 6 5 3 1 2 2 4 2 2 3 3 0 2 5 3 2 6 6 5 4 6 8 5 6 8 7 7 7 8 11 11 8 8 5 4 7 4 3 6 5 4 2 1 8 11 6 1 3 4 4 6 7 8 6 3 4 3 4 5 2 5 5 5 5 1 5 6 7 7 5 5 5 6 7 6 5 5 4 3 2
5 7 12 17 19 17 11 6 5 4 2 1 3 3 3 0 4 3 3 4 2 3 2 2 5 7 5 3 6 7 3 4 9 7 5 7 8 8 11 12 12 8 5 6 7 5 2 6 7 3 1 9 11 7 5 4 6 7 7 7 7 6 7 7 6 7 6 2 4 5 4 2 3 5 5 8 8 7 7 7 7 6 5 4 3 2 2 2
4 6 11 18 22 19 13 6 3 3 1 2 4 2 2 4 3 1 2 5 3 2 2 1 4 4 3 5 5 6 2 4 7 7 6 7 7 8 8 12 15 10 6 5 4 6 3 2 8 7 4 8 9 6 5 7 6 5 6 6 7 6 5 5 6 7 7 8 7 1 1 2 2 3 4 8 8 7 7 7 6 5 4 3 2 2 2 3
5 5 10 18 23 20 13 5 3 2 2 3 2 2 5 5 2 1 3 3 2 4 3 1 4 3 5 5 4 5 3 3 5 6 8 8 8 9 8 9 14 11 6 5 3 5 6 3 5 4 3 7 8 4 5 7 4 3 5 5 6 5 3 4 7 7 6 8 7 1 2 3 4 4 5 6 5 5 5 5 5 4 3 1 1 3 4 4
5 3 7 16 23 19 12 6 3 1 3 3 3 7 4 3 3 3 3 3 3 5 6 3 3 4 5 4 4 6 3 2 5 4 5 7 8 10 9 6 9 11 6 5 3 4 6 3 4 2 3 6 6 4 6 7 5 4 5 6 7 5 2 5 7 6 6 7 4 1 2 3 3 4 5 4 4 4 4 4 4 2 2 1 2 3 4 4
4 1 4 17 25 18 11 7 3 1 2 2 7 6 2 2 3 3 4 5 3 3 5 1 3 5 5 4 5 9 7 3 6 5 3 4 4 9 11 5 6 9 6 3 2 3 4 3 3 4 4 4 0 3 3 7 7 5 4 7 8 3 2 4 7 5 6 7 5 3 3 2 1 1 4 5 5 4 4 4 4 3 3 3 4 4 4 4
2 1 2 17 24 16 9 5 3 2 1 7 8 5 2 3 3 4 4 5 3 3 3 4 3 3 4 5 4 6 8 5 6 6 5 4 3 6 9 5 5 9 7 4 2 2 4 3 2 2 4 2 2 2 0 6 9 6 3 6 6 2 2 5 5 6 7 7 7 4 2 2 2 2 1 4 6 5 5 5 5 4 4 5 5 5 5 4
0 3 2 17 19 12 11 5 1 2 4 7 6 4 3 3 3 3 3 3 3 3 3 4 3 3 4 5 2 3 5 6 7 5 4 5 3 5 7 4 5 10 8 5 4 4 4 2 1 1 2 2 0 3 3 4 8 5 3 5 5 3 5 5 4 5 6 7 8 7 5 2 3 2 1 2 4 5 5 5 5 5 6 6 6 5 5 5
2 3 3 18 14 8 13 9 4 5 7 6 5 4 3 3 3 2 1 2 2 2 3 3 2 3 4 2 1 3 4 5 6 5 5 5 3 4 7 6 6 10 9 6 4 4 3 2 3 3 2 2 1 5 5 5 7 6 5 7 6 4 5 4 3 1 4 7 7 8 8 2 4 1 2 1 1 3 5 5 5 6 6 6 5 5 6 5
2 2 4 17 10 1 7 8 7 7 6 6 6 5 2 1 2 3 1 1 2 3 3 3 4 3 2 2 2 3 3 4 6 5 4 6 5 3 4 5 6 8 7 5 2 4 4 2 4 5 2 2 3 4 5 6 7 7 6 6 6 6 5 5 3 2 3 5 4 7 9 2 4 1 1 1 1 2 3 4 4 6 6 6 5 6 6 5
2 2 5 15 9 2 5 6 6 5 5 5 4 4 2 1 1 3 2 1 1 2 2 3 5 4 3 3 3 3 3 4 5 5 4 6 6 5 3 2 5 5 4 3 1 3 3 3 5 4 2 5 7 6 4 4 6 8 7 6 5 5 5 4 5 4 5 5 3 6 8 2 3 2 1 1 1 2 2 3 4 5 6 6 6 7 7 5
3 3 6 14 8 2 4 8 5 5 6 3 2 3 2 2 2 2 3 3 2 1 1 2 2 3 4 3 3 3 3 4 5 4 4 4 5 4 2 3 5 5 3 3 2 1 1 2 5 4 2 6 7 5 1 2 2 4 6 6 5 4 3 4 5 5 5 5 4 6 8 2 3 3 2 2 3 2 3 4 6 7 7 7 8 8 7 5
3 3 5 15 10 0 2 6 5 5 6 4 5 5 2 4 5 3 4 6 3 2 2 3 2 3 4 3 3 4 3 3 4 4 3 3 3 1 1 3 5 5 4 4 3 3 2 2 5 5 2 2 3 1 1 3 2 3 5 5 5 4 4 4 3 3 3 4 6 7 9 3 3 4 3 3 3 3 4 6 8 8 8 8 8 8 7 5
2 3 4 14 17 9 4 3 5 7 6 7 7 5 3 4 3 3 4 5 4 3 3 2 1 2 3 1 2 6 6 4 3 2 2 3 2 1 1 1 3 4 4 3 3 4 3 3 5 5 5 5 4 3 2 2 4 2 3 5 6 5 5 3 3 4 3 6 8 7 7 6 1 3 4 4 4 6 7 8 8 8 9 9 9 8 6 5
0 3 2 6 11 9 5 3 4 7 6 6 5 4 3 4 2 0 2 3 3 4 4 3 1 1 2 2 3 6 8 7 5 3 1 2 0 1 0 1 3 4 3 1 3 3 2 1 4 4 4 4 5 5 4 4 5 3 3 5 5 4 5 4 3 4 5 7 7 4 7 12 11 8 5 4 5 8 8 8 8 8 10 10 9 8 6 6
1 2 2 1 4 5 5 5 4 3 3 2 3 3 3 3 3 2 1 2 3 3 3 4 4 3 3 2 2 4 5 6 6 4 1 2 2 1 2 2 2 1 1 2 1 2 3 1 4 3 4 5 6 5 3 3 4 3 1 2 3 3 4 4 3 3 4 6 7 8 13 15 15 14 10 4 5 7 7 8 9 11 13 11 10 9 8 7
2 2 1 2 1 3 4 4 4 5 5 3 3 2 3 4 3 2 2 1 1 2 2 3 6 7 4 2 1 2 3 4 4 2 1 1 3 3 2 3 1 1 1 1 2 1 3 2 3 0 5 6 5 3 3 3 2 1 1 3 2 2 2 2 2 3 3 4 9 14 17 16 15 13 7 3 4 6 8 10 11 14 15 12 11 11 9 8
2 4 1 2 1 3 3 2 2 6 7 5 4 3 4 6 5 3 2 1 1 3 5 3 4 7 4 2 2 2 1 1 2 1 1 0 2 3 1 1 1 3 3 3 3 1 2 1 2 1 6 6 4 3 3 3 3 3 3 3 2 2 3 3 5 6 6 9 12 15 17 17 13 7 4 3 4 6 9 12 14 16 15 12 12 12 10 9
1 3 2 3 5 4 2 2 0 5 6 4 3 3 3 5 5 3 2 4 2 3 4 4 4 5 5 4 3 4 3 3 3 2 1 2 1 1 2 2 2 4 5 4 2 1 1 1 2 2 4 3 5 4 3 4 4 4 4 4 3 4 4 4 5 6 7 10 12 13 15 13 4 4 3 5 5 8 12 16 16 14 12 12 12 11 9 10
5 3 3 5 5 3 2 1 0 3 4 4 3 2 2 5 5 4 3 4 4 3 3 3 3 3 5 7 7 6 5 5 5 4 1 1 2 2 2 2 3 5 5 3 2 3 3 2 1 2 5 1 4 4 4 3 2 4 5 6 5 4 4 4 5 6 7 11 13 12 11 7 3 3 6 7 7 11 16 17 15 12 11 12 11 9 9 9
6 4 1 3 4 2 2 1 1 1 3 3 3 2 2 4 3 1 2 2 3 4 3 2 2 1 3 6 6 5 4 4 4 3 2 1 3 3 3 3 2 3 4 2 1 1 2 3 1 2 5 4 3 5 2 2 2 2 3 4 4 4 5 6 7 8 9 10 10 9 7 7 6 7 9 9 11 14 16 16 13 12 12 11 9 8 9 10
Wind_Direction
46 45 43 38 30 23 15 8 3 355 343 335 325 316 309 306 304 304 308 311 320 328 327 328 320 312 305 300 305 312 318 314 291 247 238 256 263 259 275 293 298 299 312 313 297 280 256 222 214 204 211 200 210 220 181 202 213 206 229 233 241 244 255 276 242 275 328 308 64 84 31 323 34 85 102 172 167 120 99 83 86 82 69 66 68 74 95 109
46 45 42 36 29 21 13 7 1 354 347 339 329 324 316 308 304 302 304 305 311 317 317 330 333 331 317 305 309 311 316 306 270 239 210 236 265 284 301 307 301 303 316 308 302 290 266 236 209 200 215 207 192 191 176 190 200 214 233 233 241 252 293 30 331 319 320 302 328 50 59 35 25 32 342 218 144 112 92 61 79 95 63 48 60 73 99 113
47 45 42 37 31 21 11 4 355 352 345 337 332 325 317 311 306 301 300 302 304 304 306 323 342 347 334 321 314 313 318 292 247 152 124 270 331 331 318 318 313 310 308 300 307 298 283 285 244 213 226 222 198 192 196 187 192 223 237 241 249 267 298 34 320 310 332 310 298 341 86 75 43 21 336 284 122 89 61 29 3 18 13 7 40 71 104 121
45 42 39 32 26 18 8 0 351 345 335 327 321 314 311 307 305 303 301 299 299 297 294 305 329 340 338 334 322 319 314 273 226 99 95 326 344 333 326 328 323 317 310 296 296 291 281 279 251 231 238 237 215 205 218 191 187 226 224 246 268 319 294 14 45 328 357 308 292 247 118 99 64 40 18 353 133 85 43 21 355 337 342 345 26 77 106 107
38 33 30 25 22 17 9 5 357 349 341 330 319 309 303 298 298 298 297 297 294 290 285 292 307 317 326 330 325 322 301 265 94 81 18 338 351 341 331 325 326 331 322 293 287 284 263 251 237 237 239 244 225 208 231 206 198 245 232 250 268 300 282 70 86 43 36 280 269 234 150 113 84 50 34 31 52 54 15 3 356 340 346 3 52 90 98 87
32 28 25 23 19 15 11 7 3 357 352 344 335 321 308 301 296 291 291 291 287 285 282 284 292 303 316 322 323 313 281 297 73 50 1 355 351 345 334 325 321 336 325 282 278 265 247 235 227 231 229 243 234 223 238 203 191 245 243 249 255 265 273 56 91 69 15 254 243 177 105 104 99 67 49 50 49 40 23 15 15 15 30 58 79 83 86 83
29 26 21 17 13 9 5 1 359 356 352 351 347 337 322 311 305 297 290 285 282 280 278 280 286 295 308 315 315 280 257 36 66 18 13 2 350 346 337 331 321 335 315 273 273 258 251 236 229 238 237 244 246 238 234 193 200 239 255 257 237 247 261 79 85 81 37 200 105 101 95 93 97 81 60 55 50 46 48 50 48 47 52 62 66 64 71 73
24 21 15 10 7 2 358 355 353 350 347 346 345 341 332 317 312 308 295 288 282 277 275 279 284 293 306 306 296 258 234 64 54 9 10 1 352 344 334 335 322 321 291 278 291 280 270 246 239 250 248 249 258 244 218 226 227 229 249 258 215 218 218 99 99 115 110 111 103 96 87 77 85 84 63 53 51 55 59 61 63 62 60 60 59 59 63 63
18 14 8 4 0 355 353 350 348 346 343 340 339 338 332 319 313 312 306 296 285 281 278 279 284 292 296 283 276 270 97 61 28 355 0 354 348 342 337 331 303 290 274 282 295 273 269 258 254 274 275 273 271 256 219 238 241 229 247 259 237 213 165 123 137 147 133 133 123 103 93 88 94 91 64 53 56 64 67 66 67 69 66 63 60 57 59 58
11 7 2 359 352 349 346 344 344 342 340 338 335 332 328 320 313 313 308 294 284 280 275 280 284 276 273 266 270 281 77 56 357 350 343 344 344 342 339 312 285 279 275 277 276 268 272 295 302 313 299 283 265 260 219 227 294 326 261 272 257 211 145 162 172 160 153 155 141 112 99 84 71 89 73 60 66 73 74 71 69 70 69 67 64 60 59 59
4 1 357 352 347 345 341 340 341 338 338 336 332 329 325 320 317 315 308 293 282 273 271 277 263 234 255 264 277 330 71 36 353 357 341 340 341 335 333 341 309 282 289 281 269 292 291 306 307 276 289 293 254 222 202 254 316 321 274 269 238 200 172 192 174 167 163 160 146 117 103 79 54 68 79 70 76 78 77 76 72 71 72 69 67 64 60 60
358 355 351 347 344 341 339 338 337 335 335 333 332 329 325 325 324 320 312 296 281 271 271 265 221 198 254 259 324 33 57 11 354 357 345 341 338 333 326 356 348 303 297 293 295 6 301 299 265 247 285 323 284 218 190 296 283 275 258 262 238 208 204 186 162 175 184 172 154 137 122 79 60 77 83 82 87 84 82 79 76 73 73 71 69 68 64 62
354 350 346 344 341 338 337 335 333 333 332 332 332 328 328 330 327 323 317 305 293 277 245 205 173 192 263 259 59 41 27 3 352 353 351 348 335 321 311 330 340 318 288 300 331 22 301 288 262 265 320 296 286 46 248 210 234 254 238 253 257 233 209 152 144 176 184 162 148 177 196 89 77 88 80 86 96 90 87 80 80 79 76 75 72 71 67 63
353 349 347 343 339 336 333 332 332 332 331 333 331 329 332 331 331 332 327 339 50 116 143 152 156 214 262 81 70 39 31 12 1 360 360 359 341 306 296 326 336 326 274 296 324 351 297 271 259 256 29 294 307 55 242 216 216 242 235 238 249 253 202 109 130 177 180 162 161 214 233 126 90 89 78 89 101 94 91 85 85 84 81 81 76 74 70 65
353 350 348 343 339 334 332 333 333 333 333 334 334 335 339 341 354 11 34 77 98 106 117 143 155 242 233 105 78 33 30 12 4 358 355 358 347 319 327 325 331 337 278 296 271 237 261 237 247 240 132 239 239 243 256 240 221 223 243 248 231 238 156 102 107 171 168 157 173 210 227 121 97 92 88 93 101 98 95 90 88 87 85 83 80 77 74 69
351 350 347 343 339 336 336 336 335 336 335 335 338 343 354 18 44 53 67 90 103 102 101 140 178 272 263 95 90 138 26 5 355 347 345 352 341 317 325 313 305 322 211 142 168 179 219 238 259 296 253 216 228 250 268 259 238 213 226 263 261 240 208 117 97 73 94 148 180 219 209 113 106 102 98 98 105 103 99 94 91 89 86 83 80 78 75 71
348 348 347 343 340 338 338 338 338 337 336 338 343 355 28 56 62 55 58 85 92 98 96 57 241 258 24 68 86 12 2 353 355 349 337 345 342 316 317 299 273 291 178 165 190 198 219 227 203 254 239 233 250 269 265 266 267 226 210 257 267 246 251 216 109 80 103 165 169 162 108 101 108 109 101 102 106 104 101 98 96 92 88 85 81 78 74 69
347 347 345 344 341 340 339 339 340 337 337 341 346 12 67 78 70 55 37 51 96 136 130 65 337 224 81 45 359 341 342 335 351 356 345 344 344 318 315 305 276 246 202 186 194 208 226 210 216 257 242 226 242 253 259 295 329 316 304 294 285 263 260 246 112 74 106 139 121 111 107 108 113 111 104 103 105 105 102 100 98 95 92 89 85 80 75 70
347 344 344 345 342 340 340 340 342 341 341 341 351 41 112 105 87 73 43 30 38 143 111 22 349 272 67 35 357 334 335 316 336 3 359 349 338 301 283 272 260 242 241 237 180 189 264 248 240 263 291 310 330 325 301 321 333 317 308 299 296 288 278 108 92 70 85 110 115 119 119 122 122 116 112 108 108 108 106 105 102 98 94 90 86 82 77 73
347 343 342 345 344 342 342 343 346 349 347 343 347 108 155 137 132 106 55 38 40 28 3 12 4 5 61 27 355 340 330 230 359 16 5 347 323 289 264 237 241 229 247 321 340 91 298 267 272 358 2 357 352 344 322 316 315 302 293 285 279 271 270 100 107 91 67 86 96 113 118 122 124 120 118 117 118 116 113 111 105 100 98 92 90 86 81 77
346 343 341 345 345 343 344 347 355 356 356 358 346 229 56 356 311 86 68 59 57 12 18 32 1 35 48 0 355 346 316 197 36 21 6 349 309 273 308 272 266 240 49 334 296 141 244 261 19 18 359 345 333 332 322 307 294 282 277 273 273 266 239 100 114 104 118 155 115 121 121 119 124 122 122 122 119 116 115 114 109 105 101 96 94 90 86 83
346 344 342 345 345 343 345 352 4 5 15 32 44 70 63 41 18 71 206 106 77 13 22 56 329 57 67 159 356 335 312 64 18 19 5 353 350 356 348 334 328 12 24 318 269 256 230 55 31 5 343 324 306 317 308 290 275 269 266 267 278 272 113 101 110 123 182 176 145 143 130 121 128 123 120 118 107 99 101 106 108 107 104 100 97 92 91 86
346 345 344 344 343 343 343 1 15 19 45 56 59 68 88 106 98 110 263 107 88 44 39 50 25 28 30 71 360 334 5 33 354 9 359 351 6 3 337 350 358 352 9 3 341 321 341 38 16 343 329 320 306 303 293 288 269 255 256 275 290 83 160 264 121 142 190 171 157 151 134 131 136 128 117 109 107 100 93 94 93 94 95 92 90 85 83 79
347 346 346 344 343 342 339 20 24 32 63 66 70 83 119 126 89 80 270 164 99 91 72 51 34 25 16 20 345 335 60 55 4 4 357 353 353 319 335 3 338 338 30 1 329 345 49 34 354 319 306 318 317 325 334 324 295 273 280 306 308 330 312 334 116 137 113 113 152 151 160 173 163 160 141 121 119 113 106 104 96 94 96 92 88 81 73 70
349 347 347 347 346 345 339 62 29 37 70 65 69 90 130 124 85 339 269 190 96 96 134 171 165 34 6 334 349 340 106 67 29 3 354 359 345 311 2 3 315 5 17 349 319 86 57 32 339 322 316 319 315 354 18 349 308 316 41 3 329 317 318 111 136 162 177 194 174 178 237 191 163 170 154 140 136 125 119 116 107 104 105 99 93 86 78 73
351 348 350 353 353 351 341 128 25 30 82 63 48 94 142 116 271 1 279 208 97 41 19 13 315 18 7 346 353 329 205 48 30 360 354 2 348 280 341 356 33 10 359 349 350 80 25 1 338 330 322 332 346 44 29 356 313 321 22 356 336 316 299 170 172 205 256 276 169 191 250 270 168 176 157 152 146 134 128 120 115 111 104 96 89 84 78 72
352 351 353 359 3 5 10 52 12 16 77 48 17 21 144 238 324 55 265 207 105 356 344 15 341 4 13 350 347 341 235 340 340 17 9 2 346 252 337 13 31 20 8 318 1 49 4 4 8 353 343 6 20 18 7 352 320 328 7 342 330 318 288 234 217 235 269 352 152 189 230 271 224 159 147 153 149 144 144 133 124 111 99 94 85 79 73 64
352 353 359 4 7 18 34 24 11 28 21 349 334 1 191 239 267 261 256 194 61 335 336 15 344 0 357 339 8 58 42 329 341 15 358 353 349 280 22 23 354 356 356 322 11 44 18 17 15 2 5 20 9 345 344 336 313 344 354 320 307 296 280 267 249 249 274 295 237 204 205 250 292 123 142 162 162 166 163 153 141 117 100 93 83 76 72 63
355 359 6 3 3 17 29 42 38 44 7 326 264 308 253 233 250 248 242 143 36 4 348 0 357 349 332 325 33 49 35 8 25 356 342 10 24 5 55 27 345 327 336 18 42 52 42 31 11 8 17 6 340 335 340 313 297 333 313 283 267 262 259 258 253 259 275 266 275 254 191 221 290 132 165 184 187 194 172 157 150 131 110 98 86 75 71 65
3 16 13 9 12 5 360 51 45 20 354 334 252 265 233 228 245 240 65 49 9 26 5 359 358 323 334 14 51 27 32 38 13 343 4 36 31 32 90 46 328 303 247 82 77 101 102 110 44 35 19 330 312 306 286 274 282 292 287 275 264 249 226 241 247 253 270 253 305 341 200 234 263 129 132 153 225 210 168 158 149 138 121 105 91 72 64 53
24 37 24 23 25 7 350 39 11 353 353 343 214 237 233 228 265 276 66 84 339 6 3 3 5 343 357 33 38 12 30 41 7 3 27 34 27 28 38 12 340 324 345 56 91 131 121 124 112 73 344 328 312 283 208 229 257 274 290 309 307 277 214 237 226 208 262 272 32 23 356 275 277 84 59 41 32 77 154 164 152 140 124 102 80 60 51 35
58 49 33 27 23 18 14 339 333 337 346 311 196 240 242 208 38 29 34 299 275 3 20 3 356 352 346 12 28 9 9 27 16 14 17 25 40 38 41 30 355 349 14 7 8 108 109 88 67 153 213 357 340 324 344 224 262 321 337 342 334 326 320 298 292 283 291 17 67 42 2 310 349 72 51 55 54 68 113 126 130 125 107 92 70 49 37 13
87 57 35 20 16 16 7 337 329 331 324 229 214 253 258 158 55 46 358 355 12 5 351 284 319 331 329 347 19 2 340 23 13 10 17 30 52 56 57 41 9 352 343 342 347 351 88 97 43 37 50 2 359 5 12 339 333 354 359 351 343 347 339 319 318 316 309 346 42 42 12 306 117 83 54 69 67 69 83 84 94 97 91 92 68 31 348 319
117 60 30 12 9 8 359 347 336 321 261 215 242 261 53 61 69 129 353 14 38 341 316 310 292 300 42 56 23 354 14 67 25 21 31 35 43 37 39 31 16 1 321 322 3 345 332 64 21 13 2 355 14 31 340 311 318 350 2 351 354 8 349 315 316 321 312 307 312 343 2 320 92 97 83 87 84 85 90 89 94 94 96 110 69 7 326 294
137 58 29 11 3 1 359 356 334 314 233 238 276 45 65 70 71 42 17 8 357 332 328 337 289 274 91 81 47 19 22 62 34 38 46 44 46 28 11 13 12 1 335 347 23 335 333 38 47 27 16 4 18 31 323 309 312 351 359 1 8 7 322 281 299 298 288 297 302 220 109 44 77 117 117 110 109 113 114 115 119 119 109 109 337 348 336 304
153 64 33 10 360 359 1 359 348 298 242 257 62 63 57 64 27 5 18 337 319 329 310 298 338 4 59 66 39 26 0 356 2 11 68 65 58 33 12 14 10 1 359 2 15 356 340 39 78 63 65 42 21 9 0 359 347 330 351 358 343 327 267 281 302 290 273 288 300 93 105 105 127 139 138 150 158 155 167 158 144 156 165 272 299 326 333 315
157 90 38 7 360 357 356 3 15 217 239 32 75 74 50 66 21 358 5 336 314 305 301 337 27 357 22 45 31 3 334 336 351 347 52 57 50 23 7 21 23 7 10 342 18 52 325 317 59 24 33 74 25 299 21 42 17 347 10 355 323 283 214 291 311 309 302 303 309 359 71 119 189 151 148 183 198 194 198 184 178 211 234 266 289 307 319 310
160 188 64 6 360 356 358 23 24 276 121 69 81 91 52 61 34 4 358 333 294 273 326 47 45 341 11 26 33 352 331 348 0 358 37 28 31 24 4 11 18 8 7 310 317 33 315 302 107 31 15 91 178 262 75 68 45 30 28 0 340 321 305 322 326 316 311 309 309 327 42 77 33 46 150 214 216 210 212 199 204 243 276 283 290 307 315 307
208 214 75 2 359 18 32 39 338 329 86 77 82 96 60 65 57 16 351 324 288 293 9 50 30 27 42 11 6 9 353 12 12 8 33 12 20 48 23 5 343 351 351 313 322 352 311 302 81 50 78 147 166 22 9 30 34 29 26 13 8 338 312 316 315 310 313 311 313 319 319 359 61 40 340 258 220 214 225 226 227 255 290 295 293 307 313 311
309 209 40 356 355 49 40 35 39 37 68 68 65 85 66 83 83 41 356 322 312 344 29 41 16 38 57 26 8 25 19 33 28 28 38 12 17 70 43 17 332 333 329 295 306 352 315 262 336 351 106 162 10 34 26 15 14 11 20 17 6 348 322 299 275 329 334 310 315 320 313 352 94 58 3 65 222 239 244 251 254 271 294 298 295 307 312 310
299 172 19 351 349 49 10 30 50 41 71 73 70 85 56 58 73 46 64 278 332 31 26 26 38 35 31 37 49 30 22 43 41 40 41 26 28 48 49 27 335 325 320 288 290 3 347 297 313 322 354 46 80 74 38 33 37 32 29 15 357 352 341 316 308 49 0 318 319 311 306 348 102 125 11 67 238 225 235 257 271 287 302 301 298 312 314 306
352 100 351 347 2 27 14 56 51 28 78 75 59 79 49 19 49 23 37 268 329 36 35 36 39 32 29 30 35 35 31 38 37 36 47 47 33 23 35 17 322 305 306 316 13 18 334 299 304 308 19 65 105 109 50 44 77 74 57 27 355 357 4 336 327 351 335 312 312 306 306 338 120 158 161 137 154 162 197 261 290 299 307 305 305 314 314 307
38 78 357 350 350 292 48 77 69 42 75 95 78 74 35 34 64 40 29 17 357 12 44 54 28 24 38 19 359 29 31 27 32 37 60 71 48 33 22 332 319 300 300 340 20 6 312 312 315 308 92 108 125 123 115 197 163 81 56 33 14 12 354 300 306 326 312 314 337 316 310 328 144 172 169 148 151 181 236 282 299 304 309 310 311 316 317 315
60 87 19 10 16 218 92 79 100 89 89 118 105 84 64 51 48 43 35 28 22 3 27 63 43 27 36 8 16 41 25 21 46 45 44 55 64 64 340 332 333 334 356 10 357 344 348 352 334 326 355 85 145 155 195 214 266 21 51 41 30 5 319 285 273 273 275 2 2 309 300 338 128 168 174 153 174 229 273 293 302 306 310 313 315 316 319 321
106 89 36 22 34 57 73 64 111 119 114 113 95 73 86 84 44 4 26 37 33 8 21 71 30 16 29 1 66 58 32 24 48 53 32 49 97 155 261 328 322 340 20 20 318 318 333 350 355 349 351 358 352 344 351 319 313 349 53 28 18 4 334 305 271 280 315 356 339 301 303 332 339 191 190 191 232 279 300 303 302 306 311 314 316 317 320 321
113 65 60 28 37 53 64 44 80 116 123 114 93 55 54 89 110 266 5 41 42 21 37 58 355 290 20 21 94 69 41 42 66 85 60 12 43 149 86 255 298 341 28 8 286 290 281 1 22 358 322 330 334 336 1 345 312 314 18 4 2 5 340 310 294 318 332 318 309 327 336 319 310 310 295 255 282 307 313 308 305 311 317 318 318 318 318 315
42 58 30 49 65 67 71 51 43 91 113 97 88 63 47 83 118 146 41 42 41 16 37 59 35 15 17 17 89 80 54 64 71 66 51 304 292 251 205 224 303 13 147 196 273 279 270 331 49 357 288 284 301 314 339 335 308 311 339 316 332 357 343 333 339 334 320 303 300 328 329 312 307 319 326 328 322 316 313 314 315 317 319 319 318 316 312 309
41 87 356 318 42 62 66 48 35 69 76 71 91 85 78 86 78 63 63 88 80 2 357 69 42 25 22 332 313 98 89 84 72 31 280 312 309 287 209 197 246 14 185 256 31 11 293 327 90 243 282 277 272 276 283 280 277 265 242 260 294 333 320 312 287 260 267 287 297 311 315 307 304 315 335 13 342 315 311 314 314 315 316 317 316 312 309 310
75 104 50 335 44 68 57 359 16 78 74 70 84 68 67 82 78 62 24 338 118 27 5 50 39 16 24 337 296 131 104 49 91 184 248 293 311 320 36 150 241 0 5 355 24 62 274 328 113 228 282 267 226 217 246 244 222 203 218 246 269 270 252 244 259 263 256 264 284 302 305 301 305 326 3 5 326 308 307 310 310 312 315 315 312 309 308 310
101 114 101 94 89 72 43 326 11 93 75 55 73 60 51 74 83 95 33 3 58 42 13 73 74 24 34 41 53 92 56 16 62 107 194 192 253 336 27 27 326 343 2 10 355 325 318 33 122 224 274 228 180 191 225 230 234 233 224 221 244 267 257 236 260 283 275 273 289 301 300 298 326 43 355 316 301 298 307 312 313 315 317 313 311 309 308 309
73 87 122 115 92 30 4 16 52 101 78 51 70 88 85 84 84 99 77 27 29 27 21 80 98 54 55 61 69 78 53 32 50 57 97 142 17 22 34 23 335 318 350 19 339 333 344 341 153 271 305 317 162 216 236 215 243 257 239 231 236 262 271 259 271 285 285 290 300 302 300 308 16 12 318 300 296 304 311 315 315 316 315 311 309 310 310 311
90 76 66 105 91 26 350 47 16 91 77 40 50 68 75 98 110 123 107 89 54 35 18 344 311 356 85 77 70 58 25 26 47 45 58 93 70 69 66 53 28 341 354 359 305 12 353 314 340 332 316 343 351 313 289 171 223 265 227 220 221 245 279 282 279 282 284 292 298 295 299 316 329 324 310 303 306 311 313 315 315 311 308 306 308 311 311 311
Height
814 813 813 812 812 812 811 811 810 810 809 808 808 807 807 806 806 805 805 804 804 803 802 802 801 801 800 799 798 798 797 796 795 794 793 792 793 793 793 793 793 792 792 791 790 789 787 787 787 786 786 785 785 782 783 783 782 787 791 795 793 786 780 773 773 776 777 777 777 781 782 783 786 788 788 789 789 790 794 797 801 805 809 813 816 817 817 819
815 814 814 813 813 812 812 811 811 810 809 808 807 807 806 806 805 804 804 803 803 803 802 801 801 800 799 798 797 797 796 795 793 792 793 793 793 793 793 793 792 792 792 791 790 789 787 785 784 785 785 784 783 782 784 782 783 787 788 791 788 778 773 772 773 774 776 779 778 781 784 785 789 790 788 789 790 792 798 802 802 804 810 815 817 819 819 820
816 815 814 814 813 813 812 811 811 810 809 808 807 807 806 805 805 804 804 803 803 802 801 801 800 800 799 798 797 796 795 794 792 792 793 794 794 793 793 793 792 792 792 791 790 789 788 785 784 784 784 783 782 782 784 783 783 784 785 789 782 772 772 773 775 776 778 780 779 782 786 790 795 793 790 790 791 798 809 815 813 811 815 818 819 821 821 820
816 816 815 814 814 813 812 811 810 810 809 808 807 806 805 805 804 804 803 802 802 801 801 801 800 799 798 797 796 795 794 793 791 792 794 794 794 793 793 792 792 792 791 791 791 789 789 787 785 784 784 784 780 781 784 782 783 781 783 786 776 773 777 775 777 779 780 782 781 782 787 794 799 798 798 795 794 805 818 825 826 823 823 822 821 821 821 821
817 816 815 814 813 813 812 811 810 809 808 807 806 805 805 804 803 803 802 802 801 801 800 800 799 799 798 797 796 795 795 795 793 792 794 794 794 793 792 792 792 791 791 791 790 789 789 787 785 785 786 785 781 783 783 778 781 782 782 780 774 777 780 777 779 782 783 783 782 783 787 794 799 805 810 807 807 819 828 829 829 827 825 823 822 822 822 824
817 816 815 814 813 813 812 811 810 809 808 807 805 805 804 803 802 802 801 801 800 800 800 799 799 798 798 796 795 795 795 796 794 793 794 794 794 793 792 792 791 791 791 791 790 789 788 786 786 786 785 784 782 783 781 776 780 785 781 775 775 778 779 779 782 786 787 784 784 786 790 795 801 811 818 819 824 830 832 831 829 827 824 823 823 823 824 828
818 816 815 815 813 813 811 810 809 808 807 806 805 804 803 802 801 801 800 800 799 799 799 798 798 798 797 796 795 794 792 793 794 794 795 794 794 793 792 792 791 791 791 790 789 787 787 786 786 784 784 784 781 780 778 778 781 786 782 776 778 780 780 782 785 790 788 786 787 789 795 799 803 814 821 826 831 832 831 832 831 829 827 826 827 828 829 831
817 816 816 815 813 812 811 810 809 808 807 805 804 803 802 801 801 800 799 799 799 798 798 798 797 797 797 796 795 792 790 793 795 795 795 794 794 793 792 791 791 791 791 790 788 787 787 786 784 782 783 783 780 780 780 782 782 784 783 777 779 781 781 784 788 791 789 789 792 794 802 807 809 816 824 830 833 833 833 833 833 833 833 833 835 836 837 838
817 817 816 814 814 812 811 810 809 807 806 805 804 802 802 801 800 799 799 798 798 797 797 796 796 796 796 795 794 792 792 795 796 795 795 794 794 792 792 791 791 791 790 790 789 788 787 785 784 782 784 782 781 782 783 786 784 781 781 778 780 782 783 787 789 790 791 791 793 799 807 812 813 816 827 835 835 835 836 836 837 837 838 840 842 843 844 845
817 816 815 814 813 812 811 810 808 807 805 804 803 802 800 800 799 798 798 797 796 796 796 795 796 796 796 795 793 793 795 796 796 796 795 794 794 793 792 792 792 791 790 789 788 788 786 786 784 783 785 783 783 784 783 787 786 781 781 781 782 783 785 788 789 790 791 792 793 800 809 814 812 814 829 838 836 837 838 839 840 840 843 845 847 849 850 851
817 816 815 814 813 812 810 809 808 806 805 803 802 801 800 798 798 797 796 796 795 795 794 795 795 795 795 794 791 793 796 797 796 796 795 794 794 793 793 792 792 791 790 789 788 788 787 786 785 786 787 784 784 785 785 786 786 783 785 785 784 785 787 787 789 790 791 794 794 799 809 815 816 821 834 839 837 839 840 842 844 844 847 849 851 853 854 855
817 816 815 814 812 811 809 808 807 805 804 802 801 799 798 797 796 796 795 794 794 794 794 794 794 794 794 792 792 795 797 797 796 796 795 794 793 792 792 792 791 791 790 788 788 788 788 787 786 786 787 785 784 786 787 787 786 786 787 788 784 783 787 787 788 790 790 794 794 797 804 815 825 832 838 838 838 841 842 845 847 848 851 852 854 856 857 859
817 816 814 813 812 810 809 807 806 804 803 801 800 798 797 796 795 794 793 793 793 793 793 793 793 794 793 793 795 797 797 797 797 796 795 794 793 792 792 791 791 791 790 789 788 789 789 788 787 786 786 786 786 788 789 787 787 787 785 787 785 783 786 788 789 789 791 794 795 797 800 816 833 837 839 839 839 842 844 847 849 851 854 855 858 859 861 862
817 815 814 812 811 810 808 807 805 804 802 800 799 797 797 795 794 794 793 793 793 793 793 793 794 794 793 795 797 797 797 797 797 796 795 794 793 792 791 791 790 790 790 790 789 789 789 788 787 786 787 787 787 789 789 786 786 786 785 787 787 785 786 789 791 789 793 795 798 800 798 815 836 838 839 840 840 843 846 849 851 853 856 858 860 862 864 865
817 815 813 812 811 809 808 806 804 803 801 800 798 797 796 795 794 794 793 793 793 793 794 794 794 793 792 795 798 798 797 797 797 797 796 795 794 792 791 791 790 789 789 789 789 789 788 788 787 786 788 789 789 790 787 783 782 783 788 788 781 783 787 792 793 790 793 795 798 801 801 818 838 840 840 841 842 845 847 851 853 855 858 860 862 864 866 868
817 815 813 811 810 808 807 805 803 802 800 799 797 797 795 795 795 794 794 794 794 794 794 794 795 794 793 796 798 797 798 798 798 798 796 795 794 793 792 791 790 789 789 789 789 789 788 787 788 788 788 788 787 787 785 783 780 779 786 786 778 779 783 789 795 793 793 796 798 799 805 823 838 841 842 842 844 846 849 853 856 858 860 862 864 866 868 870
816 814 812 811 809 807 806 804 803 801 799 798 797 796 795 796 795 795 795 795 795 795 795 795 795 794 795 797 798 798 798 800 799 798 797 795 794 793 792 790 789 789 789 789 789 788 788 787 789 789 787 786 784 785 790 789 782 776 780 782 777 778 780 784 796 798 794 796 800 802 812 828 839 843 844 844 846 848 851 855 857 860 862 865 867 869 871 873
815 813 812 810 808 807 805 804 802 800 799 798 797 796 796 796 796 796 796 795 796 795 794 795 794 797 800 800 800 800 799 800 799 798 797 795 794 792 792 790 789 789 788 788 788 787 786 785 788 787 783 784 783 786 792 790 786 784 784 783 780 779 778 781 795 802 798 800 805 810 823 836 841 844 846 846 848 850 853 856 858 861 864 866 869 871 874 875
815 812 810 809 807 806 804 803 802 800 799 797 797 796 796 796 796 797 797 796 797 798 799 800 799 802 805 803 802 802 800 800 799 797 797 795 793 792 792 790 789 788 787 788 787 786 787 787 787 788 787 787 787 788 790 788 790 791 789 789 789 786 783 788 801 805 801 803 808 813 825 838 842 845 848 849 850 852 855 857 860 863 865 868 871 873 876 877
813 811 810 808 806 805 803 802 801 800 799 797 797 796 796 796 795 797 798 800 803 806 807 806 805 804 804 804 804 802 801 800 799 798 798 795 794 793 790 789 788 787 788 790 788 788 791 790 790 794 795 795 794 794 793 792 792 793 792 792 792 788 788 796 806 808 805 808 815 819 828 837 842 846 849 850 852 854 856 858 861 864 867 870 873 875 878 879
812 811 809 807 806 804 803 801 800 800 798 797 797 796 797 797 798 799 802 806 809 809 808 808 807 805 806 807 806 805 802 799 798 798 798 795 793 792 788 787 787 787 790 793 792 792 792 793 796 801 801 801 800 798 798 796 794 795 794 793 790 785 790 801 807 810 808 810 821 827 832 840 845 847 849 850 852 854 857 860 863 866 869 871 875 877 879 881
811 810 808 806 805 803 802 801 800 799 798 798 797 797 798 800 801 801 802 805 809 810 808 808 807 806 808 808 807 806 803 801 799 798 799 795 791 792 791 788 788 791 791 791 792 790 790 796 803 804 804 803 801 800 800 798 797 795 792 792 789 786 795 806 810 812 807 809 823 829 833 842 847 849 851 852 856 859 859 861 864 866 870 872 875 877 879 881
811 809 807 806 804 803 802 801 800 799 799 798 798 799 800 802 802 802 801 802 808 811 808 808 808 807 807 807 808 805 804 807 805 802 802 799 795 796 796 793 792 793 792 793 794 792 793 802 808 807 807 805 800 799 799 797 795 791 790 790 788 790 795 799 809 816 810 809 820 827 834 845 850 852 855 857 860 864 865 866 868 869 872 875 877 879 880 882
810 808 807 805 803 803 801 800 801 799 799 799 800 801 802 802 801 802 801 800 806 809 809 810 809 809 809 809 809 806 805 809 809 807 807 804 800 798 798 800 798 793 796 800 799 798 802 808 811 809 807 804 800 798 799 800 794 785 789 793 791 794 794 796 809 815 814 816 820 826 831 838 847 852 856 861 862 865 868 869 872 874 876 878 879 881 883 884
809 807 806 805 803 802 800 801 800 800 801 800 802 802 802 803 802 802 801 801 806 808 809 811 809 810 811 810 810 809 807 809 811 811 810 808 806 802 800 802 801 797 800 803 799 799 805 810 812 808 804 801 800 801 805 808 798 788 797 804 799 798 797 802 811 811 811 814 818 821 812 816 840 849 852 860 861 864 868 869 873 875 877 879 880 883 885 886
809 807 806 804 803 802 800 800 800 801 801 801 804 803 802 803 802 803 801 799 807 812 811 809 810 812 812 811 810 809 809 811 813 813 811 811 810 807 804 801 801 802 806 806 802 804 808 810 810 808 804 800 799 804 810 813 804 795 805 812 805 802 801 805 810 807 800 797 808 816 802 804 831 844 849 858 860 864 869 870 874 875 877 880 881 884 886 887
808 807 806 804 803 802 801 801 801 801 801 803 804 802 803 803 801 804 802 802 812 817 814 810 812 815 814 813 809 809 814 815 813 813 812 812 811 809 807 805 804 804 808 809 806 811 813 811 811 809 804 801 805 810 813 817 811 804 811 813 806 804 804 803 806 804 794 792 805 814 806 801 814 835 849 856 861 865 869 871 874 877 879 882 884 886 888 889
808 807 806 805 804 803 802 802 803 802 803 804 803 803 804 802 803 803 802 813 822 819 817 816 815 817 816 815 811 813 819 818 815 815 813 812 812 808 807 812 811 808 810 808 808 816 820 818 820 816 809 809 815 818 819 822 816 810 814 813 807 806 804 802 803 801 793 795 801 803 808 803 809 842 856 854 861 865 868 873 875 879 881 883 886 888 889 891
808 807 806 805 804 803 803 803 803 804 804 804 803 804 803 802 805 801 799 818 827 820 821 820 816 819 818 816 816 818 820 819 820 820 815 813 813 809 811 816 814 811 811 808 811 820 823 825 825 821 819 819 821 819 822 825 816 813 816 813 809 808 805 802 801 799 796 801 799 791 798 799 811 846 854 850 860 860 865 874 875 880 883 884 888 888 890 892
808 807 807 805 805 804 804 804 804 804 804 804 804 803 803 804 803 800 808 824 827 823 824 821 822 826 821 818 819 820 822 823 824 820 816 816 815 812 814 817 814 811 809 808 816 823 825 828 826 825 827 826 824 821 824 825 817 816 815 808 804 800 801 801 797 799 800 802 800 791 795 797 806 836 847 851 857 854 862 874 876 882 884 886 889 889 892 893
808 808 807 806 806 805 804 804 804 804 804 804 804 803 804 802 796 803 822 829 826 826 827 826 829 830 827 826 826 826 825 826 826 824 821 820 820 817 816 819 816 810 805 806 815 821 822 824 824 829 832 827 822 817 821 825 820 818 809 800 797 791 792 797 794 800 802 800 803 802 802 797 807 839 855 859 860 856 864 873 877 884 886 888 891 891 894 895
809 809 808 807 806 805 805 805 804 804 804 803 803 803 802 801 805 818 828 827 829 834 836 836 835 832 832 831 832 834 832 829 828 829 829 825 827 830 831 835 834 823 815 813 813 812 817 824 825 829 831 827 822 814 814 818 814 812 806 801 804 798 798 803 796 795 795 795 804 807 803 804 828 862 869 867 869 866 869 875 880 886 889 892 894 895 897 897
809 809 808 808 806 806 805 805 804 804 804 803 804 802 798 804 823 838 833 827 836 842 842 842 838 834 833 831 835 839 836 835 832 829 830 827 830 836 839 844 845 838 829 822 817 815 817 823 823 825 828 827 826 822 822 821 814 813 813 812 812 812 822 827 812 802 801 801 806 811 812 821 849 875 877 876 881 878 879 883 886 891 893 895 896 896 897 897
809 809 809 807 806 806 804 803 804 803 803 804 802 799 804 819 837 844 837 834 841 843 841 844 841 836 834 836 841 841 836 837 836 832 831 829 833 840 841 845 848 847 838 827 826 828 823 825 828 830 832 832 832 835 837 833 825 818 816 815 816 824 842 845 828 822 823 816 808 811 822 834 854 874 882 885 888 887 889 891 892 895 895 896 896 896 896 896
809 809 809 808 806 805 803 803 803 802 803 803 800 802 818 834 840 839 841 842 844 843 841 843 840 831 831 837 841 842 840 838 836 836 838 839 844 849 849 852 854 854 847 835 835 835 824 825 836 838 837 836 835 839 838 833 827 819 814 820 826 831 842 841 828 826 832 828 818 821 842 861 873 882 886 887 890 892 893 893 894 895 895 895 896 895 895 894
810 809 809 809 807 805 804 804 802 803 803 800 804 820 836 845 844 843 849 851 850 850 844 840 838 832 830 835 838 842 843 840 835 835 841 848 853 857 857 859 861 861 859 850 844 844 834 828 833 836 838 839 840 839 836 834 830 822 821 830 833 833 837 837 829 821 825 829 819 820 845 870 878 883 886 887 889 891 891 892 894 894 895 895 894 895 894 893
810 810 810 810 808 806 805 804 802 803 802 799 815 838 846 850 855 854 856 856 855 856 846 836 842 844 838 836 841 846 844 839 836 834 838 846 854 863 863 862 863 863 865 862 852 852 851 837 830 834 837 840 844 843 838 836 835 830 834 836 832 832 834 832 831 827 827 825 813 810 831 853 860 869 884 888 886 888 888 890 893 892 892 893 891 892 893 892
811 811 811 810 809 807 805 804 804 803 801 810 831 846 847 852 860 860 861 861 859 855 844 838 846 849 843 840 847 854 849 842 839 836 840 846 855 868 870 866 865 861 865 868 856 852 853 842 832 834 836 837 840 841 837 835 835 836 839 838 836 841 838 831 835 838 838 835 823 816 826 843 854 864 877 882 880 883 886 888 891 890 888 889 888 889 890 890
811 810 811 813 811 808 806 805 805 801 804 819 837 846 850 856 862 864 866 866 860 852 845 846 849 847 847 850 852 856 854 849 845 842 846 852 858 869 874 871 869 865 865 866 858 853 851 845 836 830 832 834 834 837 840 841 839 837 839 842 844 846 842 840 842 841 843 844 837 829 826 839 861 868 869 872 873 878 883 885 887 886 885 887 886 887 889 888
811 810 812 814 812 810 810 806 805 808 817 831 840 847 855 858 862 866 868 867 861 854 849 850 850 848 852 857 857 855 854 851 850 849 853 858 862 870 877 878 876 872 869 865 861 856 848 844 840 829 825 832 839 847 851 851 849 846 848 855 856 851 845 843 841 840 847 847 846 848 838 840 864 871 866 869 872 875 880 882 883 883 883 885 885 886 887 887
811 811 815 815 813 812 810 809 816 823 830 840 845 853 860 860 860 864 866 867 863 857 856 855 852 852 853 855 856 856 853 851 853 855 857 862 864 870 879 885 883 879 873 863 859 861 854 846 845 836 827 833 849 860 860 857 857 856 859 865 865 861 857 852 846 846 852 850 852 858 847 845 866 872 867 869 872 875 880 882 883 882 882 884 885 885 886 887
811 816 819 816 814 813 811 820 833 833 837 849 853 858 862 862 862 862 863 866 862 858 859 858 857 857 856 856 857 856 855 856 858 860 863 868 870 873 881 887 887 885 878 863 858 868 866 854 847 838 834 844 856 862 863 862 861 860 865 870 868 867 869 865 856 855 858 851 850 855 848 851 870 874 870 873 874 878 882 883 884 883 882 884 884 884 886 886
816 819 820 817 816 813 814 829 842 843 849 860 861 862 864 861 861 861 862 863 861 859 858 859 862 862 861 863 860 858 860 864 865 865 866 870 874 879 884 886 885 883 877 865 862 869 866 857 849 837 835 850 862 864 865 865 861 860 868 875 876 878 882 878 872 871 866 854 853 860 853 853 870 874 871 875 877 879 881 881 882 883 882 882 882 883 885 886
820 820 820 818 815 812 818 832 844 850 857 859 859 862 864 863 864 864 864 864 864 863 859 861 865 863 864 866 863 862 865 866 868 872 871 870 875 882 884 885 885 879 875 874 874 873 864 855 852 843 837 846 855 858 860 860 859 862 871 879 882 886 889 886 881 876 867 859 864 872 858 849 865 874 872 875 879 879 879 878 879 881 881 882 882 882 884 886
820 821 822 822 818 817 827 837 841 848 855 855 858 862 860 864 870 870 868 867 868 867 863 865 868 867 866 866 863 865 866 864 868 876 877 873 875 881 882 884 885 880 879 885 886 881 868 856 856 855 851 851 853 856 861 863 861 863 873 882 885 888 890 886 876 866 862 866 869 869 858 850 859 868 871 875 877 875 874 876 878 880 880 881 881 882 884 886
818 823 827 828 826 828 837 842 840 845 851 851 856 861 859 862 870 872 870 869 869 869 866 866 869 867 865 864 863 865 867 867 870 877 882 879 875 878 881 883 883 881 884 889 889 884 870 860 864 867 863 861 860 862 869 872 868 867 878 886 886 888 890 885 873 865 870 878 871 861 861 860 857 858 862 868 871 873 875 877 879 879 879 880 881 882 885 887
822 831 836 834 834 837 841 846 845 846 849 850 856 863 862 861 865 867 868 869 869 870 868 867 869 868 867 866 864 865 869 870 873 881 888 887 880 877 879 881 881 882 886 887 886 883 866 859 874 882 874 868 866 867 873 876 874 874 883 889 887 887 889 885 879 876 880 884 872 859 863 868 862 858 861 867 872 876 878 879 880 880 879 880 881 882 885 886
828 838 844 840 841 844 846 850 851 850 851 852 858 865 863 862 865 867 868 868 869 869 866 866 870 872 873 873 867 866 869 870 876 886 889 888 884 876 874 879 879 878 882 880 881 884 870 861 880 890 879 870 870 873 876 876 877 880 884 886 885 887 890 890 887 884 883 885 877 866 868 871 865 861 866 873 878 880 880 880 880 879 878 880 882 882 884 886
833 839 845 845 847 853 856 857 854 852 853 853 859 865 863 863 869 874 874 870 867 868 866 867 874 875 874 874 868 869 873 871 876 887 889 888 888 881 875 877 876 874 877 878 882 888 876 865 881 892 881 869 869 873 877 877 879 883 885 884 884 885 887 890 888 883 882 883 877 872 874 872 866 866 872 877 879 879 879 878 878 877 878 881 883 882 883 885
831 835 842 844 849 856 859 859 853 851 853 854 859 868 867 865 869 875 878 875 869 869 869 871 877 877 873 872 870 874 881 879 877 885 889 889 887 883 881 881 880 878 877 880 886 886 876 871 884 891 876 863 868 876 878 876 877 880 882 883 884 883 883 886 887 882 882 882 877 877 879 872 869 873 876 877 878 878 876 876 877 877 879 881 882 883 884 886
830 833 835 838 850 859 858 856 853 850 853 857 862 869 869 868 872 874 879 883 879 876 876 875 877 876 875 875 877 881 885 885 883 885 889 889 884 883 883 884 886 883 878 884 890 887 879 875 880 881 864 853 863 870 870 875 882 884 883 880 880 882 881 882 883 881 882 881 879 881 878 869 869 875 877 876 878 877 876 876 877 879 881 882 882 883 885 886
833 835 834 834 848 861 859 855 852 851 860 869 871 873 871 872 876 876 876 881 883 883 883 882 878 874 874 879 884 888 888 888 889 888 888 887 886 886 887 887 890 887 883 887 891 893 894 881 873 876 866 853 855 858 864 877 880 876 876 876 878 881 881 880 879 876 877 879 879 879 873 867 870 876 877 877 877 877 877 876 877 880 881 881 882 884 886 887